Location: Saint Louis
(38.6272°N, 90.1978°W)
Time: 22:33:44
(UTC-06:00)

Hubble Space Telescope - Visible Passes

Search period start: 12 February 2016 00:00
Search period end: 22 February 2016 00:00
Orbit: 540 x 543 km, 28.5° (Epoch: 12 February)

Date Brightness Start Highest point End Pass type
(mag) Time Alt. Az. Time Alt. Az. Time Alt. Az.
12 Feb 2.9 18:56:41 10° SSW 18:58:53 14° SSE 18:59:59 13° SSE visible
13 Feb 2.9 18:46:48 10° SSW 18:49:20 16° SSE 18:51:10 12° SE visible
14 Feb 2.8 18:37:01 10° SSW 18:39:47 17° S 18:42:21 11° SE visible
14 Feb 3.7 20:17:25 10° SW 20:17:45 11° SW 20:17:45 11° SW visible
15 Feb 2.8 18:27:19 10° SW 18:30:14 19° S 18:33:10 10° SE visible
15 Feb 3.4 20:07:58 10° SW 20:08:56 14° SW 20:08:56 14° SW visible
16 Feb 2.8 18:17:40 10° SW 18:20:42 19° S 18:23:42 10° SE visible
16 Feb 3.2 19:58:34 10° SW 20:00:07 15° SSW 20:00:07 15° SSW visible
17 Feb 2.8 18:08:05 10° SW 18:11:08 20° S 18:14:12 10° SE visible
17 Feb 3.1 19:49:15 10° SW 19:51:18 15° SSW 19:51:18 15° SSW visible
18 Feb 3.2 19:40:03 10° SW 19:42:11 14° SSW 19:42:32 14° S visible
19 Feb 3.3 19:31:02 10° SW 19:32:37 12° SSW 19:33:49 11° S visible
